User: anonymous   Login
Location: �perlecques
(50.8057°N, 2.1521°E)
Time: 14:03:23
(UTC+00:00)
Language:

EO-88 - Orbit

View from above orbital plane
View from above orbital plane
View from above satellite
View from above satellite

Ground track
Ground track

The orbit data is extracted from the following two-line orbital elements,

1 42017U 17008BX  23091.16632775  .00123447  00000-0  16672-2 0  9997
2 42017  97.2225 160.3795 0003003 255.8840 104.2082 15.57342992341408
Epoch (UTC): 01 April 2023 03:59:30
Eccentricity: 0.0003003
inclination: 97.2225°
perigee height: 393 km
apogee height: 397 km
right ascension of ascending node: 160.3795°
argument of perigee: 255.8840°
revolutions per day: 15.57342992
mean anomaly at epoch: 104.2082°
orbit number at epoch: 34140

The dashed part of the orbit path shows where the satellite is in the earth's shadow,  

DLR